Location: Unspecified
(0.0000°N, 0.0000°E)
Time: 05:32:26
(UTC+02:00)

Hubble Space Telescope - Visible Passes

Search period start: 23 June 2017 00:00
Search period end: 03 July 2017 00:00
Orbit: 538 x 542 km, 28.5° (Epoch: 22 June)

Date Brightness Start Highest point End Pass type
(mag) Time Alt. Az. Time Alt. Az. Time Alt. Az.
23 Jun 3.1 05:42:29 23° ENE 05:42:29 23° ENE 05:44:08 10° ENE visible
23 Jun 2.9 07:18:31 10° WNW 07:21:13 17° NNW 07:23:55 10° NNE visible
24 Jun 3.5 05:33:02 17° NE 05:33:02 17° NE 05:34:02 10° NE visible
24 Jun 3.2 07:09:31 10° NW 07:11:13 12° NNW 07:12:54 10° N visible
25 Jun 4.0 05:23:33 12° NE 05:23:33 12° NE 05:23:50 10° NE visible
